SL-16 DEB, 22615

Orbit data source: Space-Track

SL-16 DEB, 22615 is space debris in LEO originally from a launch on Fri, 26 Mar 1993 UTC launched from the Tyuratam Missile And Space Complex (TTMTR). Debris objects in space refer to the collection of defunct objects orbiting the Earth. Examples of debris include non-operational satellites, rocket bodies, and fragments generated from explosions, collisions, or faulty payload assembly.

Loading next visibility...
Identifier
22615, 1993-016Z
Orbit
LEO
Country
Flag of CISCIS
Related business
Manufacturer
Unknown
Mission
Spacecraft
Bus & Motor
Unknown
Mass
Unknown
Launch date (UTC)
1993-03-26 (33 years ago)
Launch vehicle
Unknown
Launch site
Tyuratam Missile And Space Complex (TTMTR)
Object type
Payload
Rocket body
Debris
Shape & HBR
Unknown shape, 0.1 m
Radar Cross Section
Medium (>0.1 m² and <1 m²)

Expand to show TLE details & history
Last TLE update: 15 hours ago

TLE from 15 hours ago
0 SL-16 DEB
1 22615U 93016Z   26255.07729260  .00000520  00000-0  39435-3 0  9992
2 22615  70.9996 253.9217 0132492 351.7808  65.9062 13.94478185693680
Epoch: 2026-09-12T01:51Z
TLE epoch observation values (Epoch: 2026-09-12T01:51:18.080Z)
Latitude
54.32124°
Longitude
-96.50257°
Altitude
883.019 km
Speed
7.436 km/s
True Right ascension
18h 49m 39s
True Declination
54° 09' 39"
Sunlit
Object was in daylight at epoch
Visualization orbit readout
Latitude
Unknown
Longitude
Unknown
Altitude
Unknown
Speed
Unknown
Apparent Right ascension
Unknown
Apparent Declination
Unknown
Sunlit
N/A
Visualization observer readout
Local Sidereal Time
09:45:12
Azimuth
Unknown
Elevation
Unknown
Doppler factor
Unknown
Orbital elements
Apogee altitude
1,007.498 km
Perigee altitude
814.35 km
Semi-major axis
7,289.061 km
Eccentricity
0.01325
Inclination
70.9996°
RAAN
253.9217°
Arg. of periapsis
351.7808°
True anomaly
67.30147°
Mean anomaly
65.9062°
Eccentric anomaly
66.6029°
Mean motion
3.48767 °/min
Orbital period
103.22 mins
BSTAR
0.00039435
Loading maneuver chart data...
Computing Atmospheric mass density...
Loading historical data...
Loading historical data...
Loading historical data...
Loading historical data...
Loading historical data...
Loading historical data...
Loading historical data...

Documentation

Showing up to 5 results
|